Tracking 19477 objects as of 16-Jan-2019
HD Live streaming from Space Station
objects crossing your sky now

DIRECTV 5 (TEMPO 1)

Track DIRECTV 5 (TEMPO 1) now!
DIRECTV 5 (TEMPO 1) is classified as:


NORAD ID: 27426
Int'l Code: 2002-023A
Perigee: 35,780.5 km
Apogee: 35,809.6 km
Inclination: 0.0 °
Period: 1,436.2 minutes
Semi major axis: 42166 km
RCS: 12.5892 m2 (large)
Launch date: May 7, 2002
Source: United States (US)
Launch site: TYURATAM MISSILE AND SPACE COMPLEX (TTMTR)

Digital television to North American subscribers; 32 Ku-band; direct broadcasting.
aabbcc
Your satellite tracking list
Your tracking list is empty




NASA's NSSDC Master Catalog

Two Line Element Set (TLE):
1 27426U 02023A   19015.98595834 -.00000044  00000-0  00000+0 0  9993
2 27426   0.0160   3.0833 0003461 295.2038  61.6716  1.00267111 61148
Source of the keplerian elements: AFSPC